Regional Weather Roundup
Issued by NWS Kansas City/Pleasant Hill, MO

Home | Current Version | Previous Version | Text Only | Print | Product List | Glossary On
Versions: 1 2 3 4 5 6 7 8 9 10 11 12 13 14 15 16 17 18 19 20 21 22 23 24 25 26 27 28 29 30 31 32 33 34 35 36 37 38 39 40 41 42 43 44 45 46 47 48 49 50
000
ASUS43 KEAX 232110
RWREAX

WEATHER ROUNDUP FOR EASTERN KANSAS AND NORTHWEST MISSOURI
NATIONAL WEATHER SERVICE KANSAS CITY/PLEASANT HILL MO
400 PM CDT WED APR 23 2014

KSZ040-057-103>105-MOZ028-029-037-043-232200-
...KANSAS CITY METROPOLITAN AREA...

CITY           SKY/WX    TMP DP  RH WIND       PRES   REMARKS
K.C. INTL      PTSUNNY   72  41  32 SE21      29.82F
K.C. DOWNTOWN  MOSUNNY   73  42  32 S16G24    29.82F
LEES SUMMIT    MOSUNNY   72  41  32 SE16G25   29.84F
OLATHE - IXD   MOSUNNY   74  44  34 SE22G29   29.81F
OLATHE - OJC   MOSUNNY   71  45  39 SE16G28   29.81F
LAWRENCE       PTSUNNY   78  45  30 SE20G29   29.79F

$$

MOZ001>008-011>017-020>025-030>033-038>040-044>046-053-054-232200-
...NORTHERN AND CENTRAL MISSOURI...

CITY           SKY/WX    TMP DP  RH WIND       PRES   REMARKS
ST. JOSEPH     CLOUDY    68  41  37 SE16      29.80F
MOSBY          FAIR      70  39  32 SE9G16    29.83F
WARRENSBURG    MOSUNNY  N/A N/A N/A SE16G23   29.86F
WHITEMAN AFB   MOSUNNY   70  34  26 SE15      29.86F
CLINTON        MOSUNNY   73  45  35 SE14G21   29.87F
SEDALIA        MOSUNNY   71  40  32 E20       29.90F
WARSAW         NOT AVBL
MARSHALL         N/A     72  41  33 SE21      29.89F
CHILLICOTHE      N/A     64  41  42 E12       29.90F
MOBERLY        PTSUNNY   64  39  39 SE15G22   29.95
KIRKSVILLE     CLOUDY    60  38  43 E17G24    29.97F

$$

MOZ041-047>049-056>058-063>065-088>090-097-232200-
...EASTERN AND SOUTHERN MISSOURI...

CITY           SKY/WX    TMP DP  RH WIND       PRES   REMARKS
ST. LOUIS INTL CLOUDY    64  35  34 E13G20    30.02F
SPIRIT OF STL  CLOUDY    62  36  37 SE7       30.01F
COLUMBIA       MOSUNNY   67  38  34 SE14      29.94F
JEFFERSON CITY CLOUDY    69  33  26 E15       29.94F
MEXICO         CLOUDY    63  41  45 E14G22    29.97F
HANNIBAL       DRIZZLE   59  34  38 SE7       30.00F
ROLLA          CLOUDY    69  35  28 E8        29.93F
LEBANON        PTSUNNY   75  34  22 SE9G17    29.92F
OSAGE BEACH    CLOUDY    72  36  26 E7        29.93F
SPRINGFIELD    SUNNY     76  42  29 SE16      29.88F
BRANSON        MOSUNNY   77  41  27 SE8G17    29.91F
NEVADA         SUNNY     79  46  31 SE14      29.84F
JOPLIN         SUNNY     80  47  31 S14       29.82F
WEST PLAINS    SUNNY     73  37  27 SE9       29.96F
MALDEN         SUNNY     73  37  27 NE7       29.99F

$$

IAZ060-094-KSZ022-034>040-054-083-096-NEZ052-066-093-232200-
...KANSAS...SOUTHEAST NEBRASKA AND IOWA...

CITY           SKY/WX    TMP DP  RH WIND       PRES   REMARKS
TOPEKA         PTSUNNY   80  46  30 S18G25    29.76F
MANHATTAN      CLOUDY    84  44  24 S20G28    29.66F
EMPORIA        SUNNY     82  46  28 S23G37    29.72F
CHANUTE        SUNNY     82  47  29 S18       29.79F
WICHITA        PTSUNNY   87  45  23 S26G35    29.69F
OMAHA          LGT RAIN  54  44  69 SE23      29.72S
LINCOLN        CLOUDY    64  44  48 SE18G28   29.68F
FALLS CITY     CLOUDY    65  46  50 SE24G35   29.69F
LAMONI         CLOUDY    54  41  61 SE10G18   29.90S
DES MOINES     LGT RAIN  48  40  73 SE18G25   29.92F

$$




USA.gov is the U.S. government's official web portal to all federal, state and local government web resources and services.